Rolla, ND

5:00 AM CDT on August 18, 2017 (GMT -0500)
Rolla

Weather History for K06D - October, 2012

Change the Weather History Date:

Thursday, October 11, 2012

  Actual Average (KRUG) Record (KRUG)
Temperature  
Mean Temperature 28 °F -  
Max Temperature 37 °F 58 °F 79 °F (1953)
Min Temperature 19 °F 35 °F 15 °F (1959)
Degree Days  
Heating Degree Days 37    
Moisture  
Dew Point 23 °F    
Average Humidity 77    
Maximum Humidity 100    
Minimum Humidity 45    
Precipitation  
Precipitation 0.00 in - - ()
Sea Level Pressure  
Sea Level Pressure 30.23 in    
Wind  
Wind Speed 14 mph (NW)    
Max Wind Speed 21 mph    
Max Gust Speed 26 mph    
Visibility 10 miles    
Events      
Averages and records for this station are not official NWS values.
T = Trace of Precipitation, MM = Missing Value Source: NWS Daily Summary

Daily Weather History Graph

Daily Weather History Graph

Search for Another Location

Airport or City:

Trip Planner

Search our weather history database for the weather conditions in past years. The results will help you decide how hot, cold, wet, or windy it might be!

Date:

Astronomy

Oct. 11, 2012 Rise Set
Actual Time 7:53 AM CDT 6:55 PM CDT
Civil Twilight 7:21 AM CDT 7:27 PM CDT
Nautical Twilight 6:45 AM CDT 8:03 PM CDT
Astronomical Twilight 6:08 AM CDT 8:40 PM CDT
Moon 3:14 AM CDT (10/11) 4:49 PM CDT (10/11)
Length of Visible Light 12h 05m
Length of Day
11h 01m
Waning Crescent, 18% of the Moon is Illuminated
Oct 11
Waning Crescent
Oct 15
New
Oct 21
First Quarter
Oct 29
Full
Nov 6
Last Quarter

Hourly Weather History & Observations

Time (CDT) Temp. Windchill Dew Point Humidity Pressure Visibility Wind Dir Wind Speed Gust Speed Precip Events Conditions
12:15 AM 32.0 °F 21.6 °F 28.4 °F 87% 30.02 in 10.0 mi NNW 15.0 mph 19.6 mph N/A   Mostly Cloudy
12:35 AM 32.0 °F 21.6 °F 28.4 °F 87% 30.03 in 10.0 mi NNW 15.0 mph - N/A   Scattered Clouds
12:55 AM 32.0 °F 22.1 °F 28.4 °F 87% 30.03 in 10.0 mi NNW 13.8 mph - N/A   Scattered Clouds
1:15 AM 32.0 °F 22.5 °F 28.4 °F 87% 30.04 in 10.0 mi NNW 12.7 mph - N/A   Partly Cloudy
1:35 AM 32.0 °F 20.8 °F 28.4 °F 87% 30.05 in 10.0 mi NNW 17.3 mph 20.7 mph N/A   Mostly Cloudy
1:55 AM 30.2 °F 20.2 °F 28.4 °F 93% 30.06 in 10.0 mi NNW 12.7 mph - N/A   Partly Cloudy
2:35 AM 28.4 °F 17.0 °F 26.6 °F 93% 30.07 in 10.0 mi NNW 15.0 mph - N/A   Clear
2:55 AM 28.4 °F 17.0 °F 26.6 °F 93% 30.08 in 10.0 mi NNW 15.0 mph - N/A   Clear
3:15 AM 28.4 °F 17.5 °F 26.6 °F 93% 30.08 in 10.0 mi NNW 13.8 mph 18.4 mph N/A   Clear
3:35 AM 26.6 °F 14.7 °F 26.6 °F 100% 30.09 in 10.0 mi NNW 15.0 mph - N/A   Clear
3:55 AM 26.6 °F 13.8 °F 26.6 °F 100% 30.10 in 10.0 mi NNW 17.3 mph 21.9 mph N/A   Clear
4:15 AM 26.6 °F 14.7 °F 26.6 °F 100% 30.11 in 10.0 mi NNW 15.0 mph 19.6 mph N/A   Clear
4:35 AM 26.6 °F 14.7 °F 24.8 °F 93% 30.11 in 10.0 mi NNW 15.0 mph - N/A   Clear
4:55 AM 26.6 °F 14.7 °F 24.8 °F 93% 30.12 in 10.0 mi NNW 15.0 mph - N/A   Clear
5:15 AM 26.6 °F 14.7 °F 24.8 °F 93% 30.13 in 10.0 mi NNW 15.0 mph - N/A   Clear
5:35 AM 28.4 °F 17.0 °F 24.8 °F 86% 30.14 in 10.0 mi NNW 15.0 mph - N/A   Clear
5:55 AM 26.6 °F 15.2 °F 24.8 °F 93% 30.14 in 10.0 mi NNW 13.8 mph - N/A   Clear
6:15 AM 26.6 °F 16.2 °F 24.8 °F 93% 30.15 in 10.0 mi NNW 11.5 mph - N/A   Clear
6:35 AM 26.6 °F 16.8 °F 24.8 °F 93% 30.16 in 10.0 mi NW 10.4 mph - N/A   Clear
6:55 AM 26.6 °F 16.2 °F 24.8 °F 93% 30.17 in 10.0 mi NW 11.5 mph - N/A   Clear
7:35 AM 26.6 °F 15.7 °F 24.8 °F 93% 30.18 in 10.0 mi NW 12.7 mph - N/A   Clear
7:55 AM 26.6 °F 14.7 °F 24.8 °F 93% 30.19 in 10.0 mi NW 15.0 mph - N/A   Clear
8:15 AM 26.6 °F 16.2 °F 24.8 °F 93% 30.21 in 10.0 mi NW 11.5 mph - N/A   Clear
8:35 AM 26.6 °F 16.2 °F 24.8 °F 93% 30.22 in 10.0 mi NW 11.5 mph - N/A   Clear
8:55 AM 28.4 °F 17.5 °F 24.8 °F 86% 30.23 in 10.0 mi NW 13.8 mph - N/A   Clear
9:15 AM 28.4 °F 17.0 °F 24.8 °F 86% 30.23 in 10.0 mi NW 15.0 mph 19.6 mph N/A   Clear
9:35 AM 30.2 °F 18.9 °F 24.8 °F 80% 30.24 in 10.0 mi NNW 16.1 mph 20.7 mph N/A   Clear
9:55 AM 32.0 °F 21.2 °F 24.8 °F 75% 30.25 in 10.0 mi NNW 16.1 mph 19.6 mph N/A   Clear
10:15 AM 32.0 °F 22.1 °F 24.8 °F 75% 30.26 in 10.0 mi NNW 13.8 mph - N/A   Clear
10:35 AM 32.0 °F 21.2 °F 24.8 °F 75% 30.26 in 10.0 mi NNW 16.1 mph - N/A   Clear
10:55 AM 32.0 °F 22.1 °F 24.8 °F 75% 30.27 in 10.0 mi NNW 13.8 mph - N/A   Clear
11:15 AM 32.0 °F 20.8 °F 24.8 °F 75% 30.27 in 10.0 mi North 17.3 mph 21.9 mph N/A   Clear
11:35 AM 33.8 °F 22.8 °F 24.8 °F 70% 30.28 in 10.0 mi North 18.4 mph 21.9 mph N/A   Clear
11:55 AM 33.8 °F 24.8 °F 24.8 °F 70% 30.29 in 10.0 mi NNW 12.7 mph 25.3 mph N/A   Clear
12:15 PM 35.6 °F 26.2 °F 24.8 °F 65% 30.29 in 10.0 mi NNW 15.0 mph 21.9 mph N/A   Clear
12:35 PM 35.6 °F 24.8 °F 24.8 °F 65% 30.29 in 10.0 mi NNW 19.6 mph 25.3 mph N/A   Clear
12:55 PM 35.6 °F 25.9 °F 23.0 °F 60% 30.29 in 10.0 mi NNW 16.1 mph 24.2 mph N/A   Clear
1:15 PM 37.4 °F 27.5 °F 23.0 °F 56% 30.29 in 10.0 mi NNW 18.4 mph 26.5 mph N/A   Clear
1:35 PM 37.4 °F 27.2 °F 19.4 °F 48% 30.29 in 10.0 mi NW 19.6 mph 24.2 mph N/A   Clear
1:55 PM 37.4 °F 26.9 °F 19.4 °F 48% 30.29 in 10.0 mi NNW 20.7 mph 25.3 mph N/A   Clear
2:15 PM 37.4 °F 27.5 °F 21.2 °F 52% 30.29 in 10.0 mi NNW 18.4 mph 25.3 mph N/A   Clear
2:35 PM 37.4 °F 27.8 °F 23.0 °F 56% 30.30 in 10.0 mi NNW 17.3 mph 24.2 mph N/A   Clear
2:55 PM 37.4 °F 27.8 °F 23.0 °F 56% 30.30 in 10.0 mi NW 17.3 mph 23.0 mph N/A   Clear
3:15 PM 37.4 °F 28.5 °F 23.0 °F 56% 30.30 in 10.0 mi NW 15.0 mph 21.9 mph N/A   Clear
3:55 PM 37.4 °F 29.8 °F 19.4 °F 48% 30.31 in 10.0 mi NNW 11.5 mph - N/A   Clear
4:15 PM 37.4 °F 29.8 °F 19.4 °F 48% 30.31 in 10.0 mi North 11.5 mph - N/A   Partly Cloudy
4:35 PM 37.4 °F 29.3 °F 19.4 °F 48% 30.31 in 10.0 mi WNW 12.7 mph - N/A   Partly Cloudy
5:15 PM 37.4 °F 31.4 °F 17.6 °F 45% 30.31 in 10.0 mi NNW 8.1 mph - N/A   Clear
5:35 PM 37.4 °F 28.9 °F 19.4 °F 48% 30.31 in 10.0 mi NNW 13.8 mph - N/A   Scattered Clouds
5:55 PM 37.4 °F 29.3 °F 19.4 °F 48% 30.31 in 10.0 mi NNW 12.7 mph - N/A   Mostly Cloudy
6:35 PM 32.0 °F 25.6 °F 19.4 °F 60% 30.32 in 10.0 mi NNW 6.9 mph - N/A   Clear
6:55 PM 32.0 °F 26.4 °F 19.4 °F 60% 30.32 in 10.0 mi NNW 5.8 mph - N/A   Clear
7:15 PM 28.4 °F 23.3 °F 19.4 °F 69% 30.31 in 10.0 mi North 4.6 mph - N/A   Clear
7:35 PM 26.6 °F 22.6 °F 19.4 °F 74% 30.32 in 10.0 mi NNW 3.5 mph - N/A   Clear
8:15 PM 23.0 °F 18.4 °F 19.4 °F 86% 30.32 in 10.0 mi SW 3.5 mph - N/A   Mostly Cloudy
8:35 PM 24.8 °F 20.5 °F 17.6 °F 74% 30.32 in 10.0 mi SW 3.5 mph - N/A   Partly Cloudy
8:55 PM 23.0 °F 17.0 °F 17.6 °F 80% 30.32 in 10.0 mi SSW 4.6 mph - N/A   Partly Cloudy
9:15 PM 23.0 °F - 17.6 °F 80% 30.32 in 10.0 mi Calm Calm - N/A   Partly Cloudy
9:55 PM 21.2 °F 14.9 °F 17.6 °F 86% 30.32 in 10.0 mi SSW 4.6 mph - N/A   Overcast
10:15 PM 19.4 °F 11.5 °F 17.6 °F 93% 30.32 in 10.0 mi SSW 5.8 mph - N/A   Mostly Cloudy
10:55 PM 21.2 °F 13.6 °F 17.6 °F 86% 30.31 in 10.0 mi SW 5.8 mph - N/A   Partly Cloudy
11:15 PM 21.2 °F 12.6 °F 17.6 °F 86% 30.31 in 10.0 mi SSW 6.9 mph - N/A   Partly Cloudy
11:35 PM 23.0 °F 13.9 °F 17.6 °F 80% 30.31 in 10.0 mi SSW 8.1 mph - N/A   Clear
11:55 PM 23.0 °F 15.8 °F 17.6 °F 80% 30.30 in 10.0 mi SSW 5.8 mph - N/A   Clear